Location: Assche-ter-Heiden
(50.9174°N, 4.1574°E)
Time: 23:46:54
(UTC+00:00)

Cosmos 1943 Rocket - Pass Details

Date: 20 January 2020
Orbit: 813 x 842 km, 71.0° (Epoch: 23 February)

Event Time Altitude Azimuth Distance (km) Brightness Sun altitude
Exits shadow 04:49:21 11° 350° (N) 2,345 4.4 -25.7°
Drops below altitude 10° 04:50:28 10° 2° (N) 2,447 4.6 -25.5°
Sets 04:54:48 0° 33° (NNE) 3,375 5.8 -24.8°
